VOZ634 YSSY-YSCB

Flight info

Callsign VOZ634
Flight time 0h 25m
Altitude 28000
Route TONTO DCT
Aircraft B738/M-SDE3/L

Departure

Time 2026-04-20 20:05
Airport Sydney Kingsford Smith International Airport (YSSY)

Arrival

Time 2026-04-20 20:30
Airport Canberra Airport (YSCB)
Time Latitude Longitude Altitude Speed Heading
2026-04-20 19:49 -33.93799 151.16946 26 ft 0 kts 254°
2026-04-20 19:56 -33.93792 151.16974 25 ft 0 kts 254°
2026-04-20 19:56 -33.93789 151.16986 25 ft 2 kts 250°
2026-04-20 19:56 -33.93783 151.17003 25 ft 1 kts 230°
2026-04-20 19:56 -33.93774 151.17012 24 ft 1 kts 208°
2026-04-20 19:57 -33.93762 151.17017 24 ft 1 kts 185°
2026-04-20 19:57 -33.93750 151.17017 24 ft 1 kts 166°
2026-04-20 19:57 -33.93745 151.17015 24 ft 0 kts 164°
2026-04-20 20:01 -33.93763 151.17021 24 ft 6 kts 162°
2026-04-20 20:01 -33.93749 151.17059 22 ft 9 kts 26°
2026-04-20 20:02 -33.93691 151.17143 19 ft 15 kts 34°
2026-04-20 20:02 -33.93579 151.17120 22 ft 18 kts 347°
2026-04-20 20:02 -33.93434 151.17084 23 ft 24 kts 348°
2026-04-20 20:02 -33.93276 151.16985 25 ft 25 kts 328°
2026-04-20 20:03 -33.93109 151.16923 25 ft 24 kts 347°
2026-04-20 20:03 -33.92985 151.16951 25 ft 17 kts 74°
2026-04-20 20:03 -33.92955 151.17081 23 ft 14 kts 75°
2026-04-20 20:03 -33.92969 151.17158 23 ft 8 kts 162°
2026-04-20 20:04 -33.93020 151.17178 24 ft 7 kts 162°
2026-04-20 20:04 -33.93091 151.17201 24 ft 25 kts 168°
2026-04-20 20:04 -33.93617 151.17337 13 ft 124 kts 168°
2026-04-20 20:04 -33.94663 151.17593 345 ft 173 kts 169°
2026-04-20 20:05 -33.95818 151.17918 1253 ft 178 kts 166°
2026-04-20 20:05 -33.97057 151.17889 1922 ft 191 kts 200°
2026-04-20 20:05 -33.98200 151.17322 2051 ft 170 kts 203°
2026-04-20 20:05 -33.99191 151.16710 2032 ft 149 kts 210°
2026-04-20 20:06 -34.00158 151.16136 1707 ft 154 kts 196°
2026-04-20 20:06 -34.01147 151.16028 1576 ft 147 kts 178°
2026-04-20 20:06 -34.02190 151.16135 1360 ft 148 kts 172°
2026-04-20 20:06 -34.03279 151.16191 1375 ft 152 kts 180°
2026-04-20 20:07 -34.04351 151.16156 1323 ft 176 kts 182°
2026-04-20 20:07 -34.05638 151.16229 2180 ft 197 kts 173°
2026-04-20 20:07 -34.07006 151.16478 3249 ft 210 kts 173°
2026-04-20 20:07 -34.08489 151.16425 3434 ft 232 kts 195°
2026-04-20 20:08 -34.09947 151.15277 3587 ft 265 kts 228°
2026-04-20 20:08 -34.11106 151.13542 3804 ft 268 kts 233°
2026-04-20 20:08 -34.12152 151.11688 3615 ft 268 kts 238°
2026-04-20 20:08 -34.13047 151.09757 3583 ft 261 kts 243°
2026-04-20 20:09 -34.13770 151.07791 3800 ft 242 kts 248°
2026-04-20 20:09 -34.14273 151.06059 4393 ft 203 kts 254°
2026-04-20 20:09 -34.14587 151.04308 5061 ft 228 kts 259°
2026-04-20 20:09 -34.15155 151.02437 5786 ft 256 kts 239°
2026-04-20 20:10 -34.16342 151.00749 6788 ft 272 kts 227°
2026-04-20 20:10 -34.17345 150.98825 7935 ft 281 kts 243°
2026-04-20 20:10 -34.18120 150.96695 9125 ft 286 kts 249°
2026-04-20 20:10 -34.18858 150.94481 10348 ft 289 kts 248°
2026-04-20 20:11 -34.19604 150.92246 11561 ft 290 kts 248°
2026-04-20 20:11 -34.20347 150.90024 12752 ft 290 kts 248°
2026-04-20 20:11 -34.21092 150.87793 13924 ft 288 kts 248°
2026-04-20 20:11 -34.21825 150.85599 15031 ft 287 kts 248°
2026-04-20 20:12 -34.22591 150.83308 15736 ft 301 kts 248°
2026-04-20 20:12 -34.23384 150.80931 16512 ft 311 kts 248°
2026-04-20 20:12 -34.24190 150.78519 17264 ft 320 kts 248°
2026-04-20 20:13 -34.25893 150.73424 18786 ft 337 kts 248°
2026-04-20 20:13 -34.26778 150.70773 19547 ft 344 kts 248°
2026-04-20 20:13 -34.27694 150.68042 19954 ft 362 kts 247°
2026-04-20 20:13 -34.28748 150.65187 20003 ft 389 kts 244°
2026-04-20 20:14 -34.30226 150.62294 20057 ft 415 kts 233°
2026-04-20 20:14 -34.31980 150.59445 20147 ft 439 kts 233°
2026-04-20 20:14 -34.33835 150.56398 20121 ft 459 kts 233°
2026-04-20 20:14 -34.35757 150.53218 20108 ft 468 kts 233°
2026-04-20 20:15 -34.37654 150.50075 19987 ft 464 kts 233°
2026-04-20 20:15 -34.39560 150.46919 19964 ft 460 kts 233°
2026-04-20 20:15 -34.41425 150.43834 19951 ft 461 kts 233°
2026-04-20 20:15 -34.43324 150.40694 19957 ft 462 kts 233°
2026-04-20 20:16 -34.45227 150.37543 19953 ft 462 kts 233°
2026-04-20 20:16 -34.47107 150.34433 19954 ft 462 kts 234°
2026-04-20 20:16 -34.49004 150.31293 19954 ft 462 kts 234°
2026-04-20 20:16 -34.50892 150.28168 19954 ft 462 kts 234°
2026-04-20 20:17 -34.52794 150.25018 19954 ft 462 kts 234°
2026-04-20 20:17 -34.54673 150.21907 19954 ft 462 kts 234°
2026-04-20 20:17 -34.56578 150.18753 19954 ft 462 kts 234°
2026-04-20 20:17 -34.58452 150.15651 19954 ft 462 kts 234°
2026-04-20 20:18 -34.60351 150.12508 19954 ft 462 kts 234°
2026-04-20 20:18 -34.62257 150.09351 19954 ft 462 kts 233°
2026-04-20 20:18 -34.64158 150.06203 19954 ft 462 kts 233°
2026-04-20 20:18 -34.66031 150.03099 19954 ft 462 kts 233°
2026-04-20 20:19 -34.67931 149.99951 19954 ft 462 kts 233°
2026-04-20 20:19 -34.69834 149.96800 19954 ft 462 kts 233°
2026-04-20 20:19 -34.71731 149.93657 19954 ft 462 kts 233°
2026-04-20 20:19 -34.73607 149.90549 19954 ft 462 kts 233°
2026-04-20 20:20 -34.75506 149.87402 19954 ft 462 kts 233°
2026-04-20 20:20 -34.77349 149.84238 19910 ft 451 kts 238°
2026-04-20 20:20 -34.78573 149.80768 19957 ft 445 kts 249°
2026-04-20 20:20 -34.80086 149.77519 20349 ft 448 kts 233°
2026-04-20 20:21 -34.82002 149.74730 20629 ft 418 kts 231°
2026-04-20 20:21 -34.83693 149.71967 20413 ft 400 kts 233°
2026-04-20 20:21 -34.85349 149.69275 19646 ft 396 kts 233°
2026-04-20 20:21 -34.86948 149.66682 18662 ft 382 kts 232°
2026-04-20 20:22 -34.88547 149.64168 17716 ft 369 kts 232°
2026-04-20 20:22 -34.90077 149.61793 16920 ft 354 kts 231°
2026-04-20 20:22 -34.91562 149.59492 16224 ft 339 kts 231°
2026-04-20 20:22 -34.92934 149.57262 15691 ft 328 kts 235°
2026-04-20 20:23 -34.94300 149.55069 15350 ft 321 kts 231°
2026-04-20 20:23 -34.95702 149.52922 14641 ft 328 kts 232°
2026-04-20 20:23 -34.97056 149.50670 13993 ft 332 kts 234°
2026-04-20 20:23 -34.98361 149.48346 13306 ft 336 kts 236°
2026-04-20 20:24 -34.99620 149.45943 12655 ft 338 kts 238°
2026-04-20 20:24 -35.00857 149.43504 11913 ft 343 kts 238°
2026-04-20 20:24 -35.02057 149.41005 11275 ft 342 kts 239°
2026-04-20 20:24 -35.03398 149.38621 10577 ft 345 kts 231°
2026-04-20 20:25 -35.04879 149.36351 9742 ft 349 kts 231°
2026-04-20 20:25 -35.06469 149.34151 9029 ft 347 kts 225°
2026-04-20 20:25 -35.08176 149.32170 8225 ft 333 kts 226°
2026-04-20 20:25 -35.09620 149.30084 7982 ft 305 kts 231°
2026-04-20 20:26 -35.10969 149.28098 6900 ft 311 kts 230°
2026-04-20 20:26 -35.12343 149.26187 6468 ft 294 kts 227°
2026-04-20 20:26 -35.13706 149.24390 6067 ft 279 kts 227°
2026-04-20 20:26 -35.14962 149.22722 5875 ft 261 kts 228°
2026-04-20 20:27 -35.16212 149.21150 5339 ft 259 kts 220°
2026-04-20 20:27 -35.17724 149.20068 4877 ft 247 kts 194°
2026-04-20 20:27 -35.19376 149.20023 4501 ft 229 kts 179°
2026-04-20 20:27 -35.20902 149.19853 4225 ft 218 kts 189°
2026-04-20 20:28 -35.22369 149.19583 3997 ft 201 kts 186°
2026-04-20 20:28 -35.23704 149.19478 3647 ft 182 kts 181°
2026-04-20 20:28 -35.24881 149.19525 3359 ft 161 kts 174°
2026-04-20 20:28 -35.25972 149.19566 2891 ft 159 kts 185°
2026-04-20 20:29 -35.27071 149.19459 2560 ft 153 kts 182°
2026-04-20 20:29 -35.28119 149.19450 2202 ft 148 kts 180°
2026-04-20 20:29 -35.29104 149.19446 1919 ft 138 kts 180°
2026-04-20 20:29 -35.29992 149.19450 1878 ft 114 kts 181°
2026-04-20 20:30 -35.30629 149.19443 1877 ft 68 kts 180°
2026-04-20 20:30 -35.30942 149.19428 1877 ft 24 kts 216°
2026-04-20 20:30 -35.30964 149.19362 1876 ft 4 kts 271°
2026-04-20 20:30 -35.30963 149.19299 1874 ft 10 kts 271°
2026-04-20 20:31 -35.30964 149.19202 1873 ft 11 kts 270°
2026-04-20 20:31 -35.30965 149.19119 1871 ft 1 kts 269°
2026-04-20 20:31 -35.30965 149.19112 1871 ft 0 kts 269°